Location: Ladrillo (historical)
(32.8195°N, 117.2231°W)
Time: 00:14:34
(UTC+00:00)

Altair - Pass Details

Date: 02 March 2021
Orbit: 1501 x 1683 km, 47.2° (Epoch: 16 April)

Event Time Altitude Azimuth Distance (km) Brightness Sun altitude
Rises 05:37:58 0° 288° (WNW) 4,666 10.7 -48.0°
Reaches altitude 10° 05:41:26 10° 298° (WNW) 3,704 10.0 -48.7°
Enters shadow 05:47:38 31° 337° (NNW) 2,483 8.7 -49.8°
